Theta_e
317 317 315 316 321 323 322 322 318 320 317 311 316 319 324 334 334 334 336 338 339 340 338 340 341 340 343 345 346 345 343 345 346 344 344 344 341 342 344 342 342 342 343 342 341 341 340 340 339 339 338 338 337 337 338 338 338 337 337 338 339 339 339 339 339 339 340 340 340 340 340 339 339 340 339 339 340 341 341 340 340 340 339 340 341 340 340 340 338 338 338 338 338 338 337 337 337
321 318 316 319 323 323 322 322 316 316 314 310 318 324 328 335 334 335 338 339 339 338 337 339 339 341 342 342 341 343 344 343 343 344 343 340 339 341 342 342 342 342 343 342 343 342 341 340 339 338 337 337 336 336 337 337 338 337 337 338 338 338 338 338 339 339 339 339 339 339 339 338 338 338 337 337 337 337 339 339 340 340 339 339 340 340 340 339 338 337 337 338 338 338 338 337 337
321 318 319 322 323 321 322 321 314 312 311 310 317 327 330 333 336 338 339 339 338 337 337 338 339 342 342 342 342 344 345 343 341 342 341 339 340 340 341 342 342 342 342 342 343 342 341 340 339 338 337 337 336 337 337 337 338 338 338 338 338 338 338 338 339 338 338 338 338 338 337 337 336 336 336 336 335 334 334 336 338 340 339 339 338 339 339 338 338 337 337 337 337 337 337 336 335
318 318 320 322 322 320 322 319 316 313 310 310 315 327 332 333 338 338 338 338 337 337 338 339 339 340 341 344 343 343 345 343 340 339 339 338 338 339 341 341 341 342 341 341 340 341 340 338 338 338 337 337 337 337 337 337 337 337 338 337 338 338 337 338 338 337 337 337 336 337 336 335 335 334 335 335 334 333 332 333 335 338 338 338 338 338 338 338 338 337 336 336 335 336 336 335 333
316 319 320 322 322 320 321 320 318 313 312 314 315 326 333 333 339 338 337 338 337 338 338 338 340 339 338 342 342 342 343 341 339 338 337 337 338 339 341 341 340 341 341 340 340 340 338 337 337 337 337 337 336 336 337 337 337 337 337 337 337 337 337 336 336 336 336 335 334 335 334 334 334 334 334 334 334 334 334 333 334 336 337 337 337 338 338 337 338 338 337 337 337 337 337 335 333
318 320 320 322 322 321 320 317 314 313 317 322 320 328 332 334 339 338 339 339 338 337 337 338 340 340 340 340 340 341 340 340 339 337 337 336 338 339 340 340 339 339 339 340 340 340 338 336 336 336 337 336 336 336 337 337 336 336 336 336 336 336 336 335 335 334 333 333 333 334 333 334 334 334 334 334 335 335 336 336 335 335 335 336 337 337 338 337 338 338 337 336 336 335 336 336 334
320 320 321 321 320 320 319 315 314 315 321 326 326 330 333 337 340 339 342 342 340 337 337 339 338 341 342 340 340 339 337 339 338 337 337 338 339 340 340 339 338 337 338 340 339 338 337 336 336 336 336 335 335 336 336 336 336 335 336 336 336 336 335 335 334 333 334 334 333 333 333 333 333 333 332 333 335 336 337 337 336 336 334 334 335 335 336 336 336 335 334 332 331 333 334 335 335
320 320 320 320 321 320 319 316 316 319 323 326 329 333 335 338 339 341 343 343 342 340 340 339 337 341 342 339 341 339 336 336 336 336 338 339 339 339 339 338 337 337 339 340 338 338 337 334 334 335 335 335 335 335 335 335 335 334 335 335 335 335 335 334 334 334 335 334 333 333 332 332 333 332 331 332 333 335 336 337 337 335 334 334 334 333 333 333 332 332 333 332 332 333 334 335 335
320 321 319 320 321 319 317 316 318 321 325 327 331 337 338 338 338 341 342 342 341 341 341 339 337 341 341 340 340 338 336 336 336 337 339 339 339 339 339 338 337 339 339 340 339 339 337 334 334 334 334 334 334 334 333 333 333 333 333 333 334 334 334 334 334 335 335 335 334 333 332 333 332 331 331 331 332 333 335 337 336 334 334 333 333 332 331 330 330 332 334 335 333 332 334 335 335
319 320 319 319 319 316 314 315 318 322 326 329 332 336 338 338 338 340 341 341 340 341 341 337 338 340 340 340 339 337 336 336 337 338 338 339 339 339 339 338 339 339 339 339 340 340 337 335 334 333 333 333 333 332 331 331 331 331 331 332 333 333 334 334 334 334 335 335 335 334 334 333 332 330 330 330 331 332 334 335 335 334 333 331 331 331 331 329 328 329 331 334 334 333 334 334 335
319 318 319 318 315 312 312 314 318 323 328 331 332 334 336 338 338 340 341 340 339 340 339 338 340 340 339 340 338 335 335 336 337 337 338 338 339 339 339 339 339 339 338 338 339 339 338 336 334 332 332 332 332 333 332 332 332 332 332 332 333 334 334 334 334 334 333 334 334 334 333 333 332 331 331 331 330 330 332 334 334 334 333 332 333 334 334 334 332 331 329 328 331 333 332 332 332
318 317 318 316 313 313 313 314 318 324 328 329 332 335 336 338 340 341 341 340 338 339 338 337 339 339 340 341 337 334 335 336 337 337 338 338 338 338 338 338 338 337 338 338 338 338 338 337 336 333 331 332 333 334 334 334 334 334 334 334 334 334 334 334 334 334 333 333 333 333 333 332 332 332 333 334 332 331 332 333 334 334 334 335 336 336 336 337 336 335 332 326 325 328 330 329 328
318 317 316 315 314 314 315 316 320 325 327 329 335 338 337 338 340 339 338 338 338 339 338 335 336 338 340 340 337 335 335 335 336 337 338 338 337 337 336 336 336 336 336 337 337 337 338 337 337 336 333 334 334 333 333 334 334 334 335 335 334 334 334 334 334 334 333 333 333 333 333 333 333 334 335 335 334 333 335 335 335 335 335 336 336 336 336 337 336 336 335 330 325 326 328 327 325
317 316 317 315 315 317 317 318 321 321 323 331 338 339 338 337 337 335 336 337 338 337 336 335 335 338 339 338 337 336 336 335 335 336 337 337 336 335 335 335 335 336 336 337 337 336 337 337 338 338 338 338 338 336 334 333 334 335 334 334 333 333 334 333 333 333 333 333 333 333 334 334 334 335 335 335 336 336 336 336 335 335 335 335 334 334 334 334 335 334 334 331 328 327 326 326 327
316 316 320 318 316 317 318 320 321 320 323 333 339 338 337 336 334 334 335 338 338 335 335 337 335 338 337 337 338 336 336 335 335 336 337 336 335 335 335 335 335 336 336 336 336 336 337 338 338 339 339 340 340 339 338 335 333 333 333 333 333 332 333 333 333 333 333 333 333 333 333 335 335 335 336 336 336 336 336 335 333 333 332 332 332 331 332 332 332 332 333 332 330 330 329 329 331
317 319 321 319 316 316 318 321 322 321 325 335 338 337 338 336 334 335 335 336 337 335 336 338 336 338 337 336 336 336 336 336 336 336 336 335 335 335 335 336 336 336 336 336 337 337 338 338 339 338 338 338 339 339 339 337 333 332 332 331 331 332 332 332 332 332 332 333 332 332 334 337 338 337 337 337 336 334 333 332 332 331 331 331 330 331 331 331 331 331 332 332 332 332 331 332 332
317 320 320 318 316 316 319 322 322 322 327 335 338 337 338 337 335 335 336 335 337 336 335 336 336 337 336 335 336 336 337 336 336 336 335 336 336 336 336 336 336 336 337 337 338 338 337 338 339 338 337 337 339 339 339 338 334 335 336 333 332 332 331 332 332 334 335 335 333 334 337 339 339 338 338 338 337 334 332 331 331 331 330 330 330 330 331 331 331 330 331 331 331 331 331 333 334
318 320 320 317 317 322 324 325 326 326 329 335 337 337 336 337 336 335 336 337 336 336 335 335 335 335 333 334 336 336 337 336 336 336 336 336 336 336 336 335 336 337 337 337 338 338 338 338 338 338 338 337 337 338 339 338 336 337 338 336 335 334 333 334 335 336 337 337 335 337 339 338 337 337 337 336 336 334 331 331 330 330 330 330 330 330 330 330 330 330 330 330 330 330 331 334 335
320 321 320 319 323 329 330 331 331 330 332 335 336 335 336 336 336 336 337 339 337 336 337 335 333 332 332 333 335 336 336 336 335 335 336 336 335 335 335 336 337 337 337 337 338 338 338 338 338 338 338 338 336 337 338 338 338 337 337 336 336 336 336 336 337 336 337 337 337 337 338 337 336 335 334 333 333 332 331 330 330 330 330 330 330 330 330 330 330 330 329 329 330 330 331 332 331
322 322 321 325 328 331 333 333 332 331 333 335 335 334 336 335 335 336 336 337 337 336 336 334 332 331 331 333 336 336 335 335 335 335 335 335 335 335 336 337 337 337 337 337 337 338 338 338 337 338 337 337 337 337 338 338 337 335 335 335 334 335 335 336 336 335 336 336 336 336 336 336 335 334 333 331 332 332 331 330 330 330 330 329 330 330 331 330 330 330 330 330 330 330 330 330 329
325 325 327 330 329 331 332 332 332 332 333 335 335 335 336 335 335 336 334 335 336 334 333 332 332 331 331 333 335 335 335 335 335 335 334 335 335 336 337 337 336 336 337 337 337 337 337 337 337 337 337 337 338 337 337 336 335 334 333 333 333 333 334 334 334 334 334 335 334 334 334 334 333 332 332 331 331 331 330 330 329 329 329 329 329 329 329 329 330 330 329 329 329 329 329 329 328
329 330 331 331 331 332 332 331 332 333 333 334 335 335 334 334 334 333 331 333 334 333 330 329 331 332 332 333 335 335 335 336 335 335 335 336 336 335 336 336 336 336 336 336 337 337 336 337 337 337 337 337 337 337 336 335 333 332 331 331 331 331 331 332 331 332 332 333 332 332 332 332 331 330 330 330 330 329 329 329 328 328 328 327 327 327 328 327 328 328 328 328 328 328 328 328 327
331 332 331 332 332 333 332 331 332 333 334 334 335 334 333 334 334 331 331 331 332 332 329 328 331 333 333 334 335 334 334 335 335 335 337 337 335 335 335 335 336 335 336 336 336 336 336 336 336 336 336 336 336 336 334 332 331 330 330 329 329 329 329 329 329 329 330 330 330 330 330 330 329 329 329 329 328 328 328 327 327 326 326 326 325 325 325 326 326 326 326 326 326 327 327 327 327
331 333 333 333 332 332 331 331 332 333 334 334 334 333 333 335 334 333 333 333 332 330 330 331 333 334 334 334 334 334 334 335 335 335 336 336 335 334 334 334 335 336 336 336 336 336 335 336 336 335 336 336 334 333 331 330 329 329 328 327 327 327 327 327 328 328 328 328 328 328 328 328 328 328 328 327 327 327 326 325 325 324 323 323 323 323 323 323 324 324 324 325 324 324 325 325 325
332 333 333 332 332 332 330 330 332 333 333 332 332 332 333 334 332 333 333 332 330 329 331 332 332 333 333 333 333 334 335 336 336 335 335 335 335 335 334 334 335 336 336 336 335 334 334 334 334 335 335 334 332 331 329 328 328 327 326 325 325 325 325 325 325 325 326 326 327 327 327 327 327 327 326 326 326 325 324 324 323 322 321 321 321 321 321 321 321 321 321 321 322 322 322 323 323
332 333 333 332 332 332 331 332 333 333 333 332 332 332 333 332 331 332 332 330 329 330 331 331 331 332 332 332 332 333 335 336 335 335 335 334 334 334 334 335 335 336 336 335 333 333 333 332 333 334 333 332 330 329 328 327 326 325 325 324 324 324 324 324 323 323 324 325 326 326 326 326 326 325 325 324 324 323 322 321 321 320 319 319 318 318 318 318 318 318 317 318 318 318 319 321 321
331 333 332 331 332 332 332 333 334 333 333 333 333 331 331 331 331 333 331 331 330 331 331 330 331 332 332 332 332 333 334 335 334 334 334 333 333 334 334 335 335 335 334 333 332 332 332 332 332 332 331 330 328 328 327 326 325 325 324 323 322 322 321 321 321 321 322 323 323 324 323 323 323 323 322 321 321 321 320 320 319 319 318 318 317 317 317 317 317 316 316 316 316 316 316 318 319
331 333 332 331 331 332 333 334 334 334 333 333 333 332 331 331 333 333 331 331 332 331 330 330 332 332 332 332 331 332 334 334 333 333 333 333 333 334 333 334 333 332 331 331 331 331 331 331 331 330 329 328 327 327 326 325 325 324 323 322 321 321 320 319 320 320 320 321 321 321 321 320 320 320 320 320 319 320 319 319 319 318 318 318 317 317 317 316 316 315 315 315 315 315 315 316 316
331 332 333 332 332 333 333 334 334 333 334 333 332 333 332 332 333 332 330 331 332 332 331 331 332 331 332 331 330 331 333 333 332 332 333 333 333 332 331 330 330 329 329 330 329 330 330 331 330 328 327 327 327 326 325 325 324 323 321 321 320 320 319 319 319 319 319 319 319 319 319 319 319 319 320 319 319 319 319 319 318 318 318 317 317 317 316 316 315 315 315 315 315 315 315 316 316
332 333 333 333 333 332 332 333 333 333 334 332 331 335 334 332 333 332 331 332 332 332 332 332 332 331 331 331 330 330 332 332 332 332 332 332 331 330 329 329 329 328 329 328 328 328 329 330 329 328 327 326 326 325 325 324 323 321 320 320 320 319 318 318 319 319 318 318 318 318 318 319 319 319 319 319 319 318 318 318 317 317 317 316 316 317 316 315 316 316 316 316 317 316 315 317 317
332 332 331 331 330 331 332 332 333 333 333 330 332 335 334 332 332 331 331 332 333 333 332 332 331 331 330 330 330 331 332 332 332 333 332 330 329 328 328 328 328 328 328 327 327 328 328 329 328 328 327 326 325 325 324 323 322 321 320 319 319 317 317 317 318 317 317 317 317 318 318 318 318 318 318 318 318 317 317 317 316 317 316 316 316 317 316 316 317 317 316 318 318 317 316 317 318
332 331 328 328 328 331 334 332 332 332 331 331 332 333 333 332 331 331 332 331 333 333 333 333 332 331 331 330 331 331 332 333 333 333 331 329 328 328 328 328 328 327 327 327 327 327 327 327 327 327 326 325 325 324 323 322 322 321 320 319 318 317 316 316 317 316 316 316 317 317 317 317 317 317 317 317 317 317 316 315 316 316 316 316 317 317 316 316 317 318 317 318 318 317 316 317 317
330 330 326 327 328 330 333 332 332 331 330 331 332 332 333 332 331 331 332 331 332 333 333 333 332 332 331 331 331 332 332 333 333 332 329 328 328 327 327 327 327 327 326 327 327 327 327 326 326 325 325 324 324 323 322 321 321 320 319 318 317 316 316 316 316 316 315 316 316 317 317 317 317 317 317 316 316 315 315 315 316 316 316 317 316 316 316 316 317 317 317 317 317 316 316 316 317
327 328 327 328 329 329 330 332 332 330 330 332 330 331 333 332 331 331 332 331 331 332 332 332 332 331 331 331 331 332 331 331 330 330 328 327 327 326 326 325 325 325 326 326 326 326 326 325 325 325 324 324 323 322 322 321 321 320 319 318 317 316 316 316 315 315 315 315 315 316 316 316 316 316 316 316 315 314 314 315 316 316 316 316 316 316 315 316 316 317 317 317 316 316 315 316 317
325 327 326 327 328 328 330 333 332 330 331 332 330 331 332 332 331 331 331 331 330 331 331 331 331 331 332 331 330 330 330 329 329 328 327 326 325 325 324 323 323 323 324 325 326 326 325 325 324 324 323 323 322 322 321 320 320 319 318 317 316 316 316 315 315 315 314 314 314 314 315 316 315 315 315 315 315 314 315 315 317 316 315 316 316 316 315 316 317 318 318 317 316 316 314 315 316
327 327 328 328 328 328 331 333 331 331 332 331 331 331 331 331 330 331 331 331 331 330 331 331 331 332 332 331 330 330 329 328 328 327 325 325 325 325 323 322 321 321 322 323 324 324 324 324 323 323 323 322 322 321 320 319 318 318 317 316 316 316 315 315 315 314 313 314 314 313 315 315 315 314 314 314 315 315 315 315 316 316 315 316 317 317 316 317 317 318 318 318 317 316 315 315 315
328 329 329 329 329 329 331 332 330 332 333 331 331 331 330 330 330 330 331 332 332 331 332 333 332 332 333 331 331 330 328 328 328 326 325 325 324 324 322 321 321 321 321 322 322 323 323 322 322 322 322 321 320 320 319 318 317 317 316 316 316 316 316 315 314 314 313 313 314 314 315 315 314 314 314 315 315 315 315 315 315 316 315 316 316 317 317 317 317 317 318 317 316 316 316 315 316
329 329 329 329 330 330 332 332 330 331 332 331 331 331 331 330 329 329 330 332 332 333 333 333 333 333 333 333 331 329 328 327 328 327 325 325 324 322 322 320 320 320 320 321 321 321 321 321 321 321 320 320 320 320 319 318 316 316 316 316 315 315 315 315 314 314 313 313 314 314 315 315 313 314 314 315 315 315 315 315 315 316 316 316 317 317 317 317 317 318 318 317 316 316 315 315 316
329 329 329 327 329 331 332 331 331 331 332 332 331 331 331 331 330 329 329 331 332 332 332 332 333 333 333 333 331 329 328 327 327 327 326 324 323 322 321 319 318 318 319 319 320 320 320 319 319 319 319 319 319 319 318 317 317 317 316 316 315 314 315 315 314 315 314 313 314 314 315 315 314 314 314 314 314 315 316 316 316 317 317 317 317 317 317 317 317 318 318 318 317 316 315 315 317
328 328 326 324 328 331 330 330 331 331 332 332 331 331 331 332 331 330 330 330 331 331 330 331 331 331 333 333 331 329 328 327 326 327 326 325 324 322 320 319 318 318 318 318 319 319 318 318 318 318 318 318 318 318 317 318 318 318 317 316 315 315 315 315 315 314 313 313 314 313 314 315 315 314 314 314 314 315 316 316 317 317 317 318 318 317 317 317 317 317 317 318 318 318 316 316 317
327 328 327 325 328 330 329 330 331 331 331 331 331 329 329 331 331 331 330 330 331 331 330 331 330 330 331 332 331 329 328 328 327 326 327 326 324 323 321 319 319 318 317 317 318 317 317 317 317 317 317 317 318 318 318 318 318 317 317 316 316 315 315 315 314 314 313 313 313 313 314 315 315 315 314 314 314 315 316 317 317 317 317 318 318 318 317 317 317 316 317 318 318 318 317 316 317
325 328 328 328 329 330 330 331 331 328 328 330 330 328 327 329 330 331 331 330 330 331 330 331 331 330 330 331 332 331 329 328 328 328 327 327 325 323 321 320 319 318 317 317 317 317 317 316 317 317 317 317 318 318 318 318 317 317 316 316 316 316 315 315 314 314 313 313 314 314 315 315 315 315 315 315 315 316 317 317 318 317 317 317 318 318 317 317 317 317 318 318 317 317 316 315 315
322 326 328 328 329 330 331 331 329 326 327 330 330 328 325 325 328 330 331 331 331 331 330 330 330 330 329 331 331 331 330 328 328 329 328 328 326 323 322 321 319 318 317 317 317 318 318 317 318 318 317 317 317 318 318 318 317 316 316 315 315 315 315 315 314 314 314 314 314 314 315 315 315 315 316 316 316 316 317 317 317 317 316 316 317 317 318 318 317 317 317 316 315 315 314 314 313
322 326 329 329 329 331 331 331 328 325 328 329 328 328 325 322 326 330 330 331 331 331 331 330 330 329 329 330 331 331 330 328 327 327 327 328 326 323 322 321 320 319 318 318 318 318 318 318 319 318 318 317 317 318 318 318 317 316 316 315 315 315 315 315 314 314 315 315 315 314 315 315 315 316 316 316 316 316 316 316 317 317 317 317 317 317 317 317 316 315 315 314 313 313 312 312 312
325 328 328 328 330 330 330 329 328 327 329 327 326 328 325 323 326 330 330 329 331 331 331 331 330 330 329 330 331 331 329 328 327 327 327 328 327 324 322 321 320 319 318 318 319 319 319 319 319 319 319 318 318 318 317 317 317 317 316 316 315 315 315 315 314 314 315 315 315 315 315 315 316 316 316 316 316 316 317 317 316 317 318 317 317 316 316 315 314 313 312 312 311 311 310 310 309
328 328 329 329 329 329 330 329 327 327 328 326 325 328 327 324 324 327 329 328 329 331 330 330 330 330 330 330 330 331 329 328 327 328 329 328 327 325 322 322 321 320 319 319 320 320 320 320 320 320 319 319 319 319 318 317 318 318 317 317 316 316 315 315 315 314 315 315 315 315 316 316 316 316 317 318 318 317 318 317 317 317 317 316 315 314 314 313 312 311 310 309 309 309 309 308 308
328 329 329 329 329 329 329 328 327 327 326 325 325 326 327 326 323 325 330 328 328 330 329 329 329 329 329 329 330 330 329 328 328 328 329 328 327 325 323 322 321 320 320 320 321 320 320 320 320 320 320 320 320 320 319 318 318 318 317 317 316 316 315 315 315 314 315 315 315 316 316 316 317 317 317 320 319 318 318 317 316 316 315 314 313 312 312 311 310 309 308 308 307 307 306 306 306
329 329 328 327 327 327 328 327 326 325 323 324 324 325 327 326 323 325 329 328 328 329 329 329 329 328 329 329 329 329 329 329 328 328 329 329 328 326 324 323 322 321 321 321 321 321 320 320 321 321 320 321 321 321 320 319 318 317 317 317 317 316 316 315 315 315 315 315 315 316 316 317 317 317 318 320 319 317 316 315 315 314 312 311 310 310 309 309 308 308 307 306 305 305 304 304 303
329 328 325 324 322 322 323 323 321 321 322 325 325 326 328 324 324 327 328 328 328 328 329 329 328 328 329 329 328 328 329 329 328 328 328 329 329 327 325 324 323 322 321 321 321 321 321 321 321 321 321 321 321 321 321 320 319 318 318 318 317 317 317 316 315 315 315 315 316 317 317 317 317 317 319 319 317 316 315 314 312 311 310 309 309 308 307 307 307 306 305 304 303 302 302 302 301
328 325 322 322 321 321 321 320 319 320 323 326 327 328 326 322 325 328 328 328 328 328 328 328 329 329 329 329 328 328 329 328 328 328 327 328 329 328 326 325 324 323 322 320 321 321 321 321 322 321 321 321 321 321 321 321 320 320 319 319 318 317 317 317 316 316 316 316 317 317 317 317 317 318 319 318 315 314 313 312 310 309 309 308 307 307 306 305 305 304 303 302 301 300 300 301 300
327 327 324 321 321 321 322 320 319 320 321 324 329 327 321 321 329 330 327 328 328 328 328 328 329 329 329 329 327 328 328 328 328 328 328 329 330 329 327 325 324 324 322 321 321 321 321 321 321 322 322 321 321 321 321 321 320 320 320 319 319 318 317 317 317 316 317 317 317 317 318 318 318 319 319 316 314 313 311 310 309 308 307 306 305 305 304 304 303 302 301 300 300 300 300 300 300
327 327 325 322 322 321 320 320 322 322 320 321 323 323 320 324 330 328 327 328 327 328 328 327 329 329 329 329 328 328 328 328 328 328 329 330 330 329 328 326 325 324 323 322 321 321 322 321 321 322 322 321 321 321 321 321 321 320 321 320 320 319 319 318 318 317 318 318 318 318 319 319 319 319 316 314 313 312 310 309 308 307 306 305 304 303 302 302 301 300 300 299 299 299 299 299 299
327 324 322 323 324 322 319 321 325 324 321 319 317 318 319 323 326 327 328 328 328 329 328 328 329 329 330 330 329 328 328 328 328 329 330 331 331 330 329 327 326 324 323 322 321 321 322 322 321 321 322 322 322 321 321 321 321 321 321 321 320 320 319 320 319 319 319 320 319 319 320 320 319 317 314 313 311 310 308 307 307 305 305 303 303 301 301 301 301 300 299 299 299 299 299 298 298
325 321 322 324 325 325 322 320 321 321 318 318 316 315 315 317 322 327 329 328 329 329 328 328 330 330 331 331 330 329 328 328 328 329 330 331 331 331 329 327 326 324 323 322 322 322 322 322 321 321 322 322 321 321 322 322 322 322 322 322 322 321 320 320 319 320 321 320 320 321 321 319 317 314 312 311 310 308 307 306 305 304 303 302 301 301 300 300 299 299 299 298 298 298 299 298 298
325 323 324 324 322 322 321 318 318 318 318 317 315 314 314 315 318 323 327 329 330 330 329 330 330 331 331 331 330 329 328 329 329 328 329 330 330 330 329 327 326 325 323 322 322 322 321 322 322 322 322 322 322 322 322 322 322 322 322 322 323 323 322 321 321 322 321 320 321 321 319 317 314 312 311 309 308 307 306 305 304 303 302 301 300 300 299 299 298 298 298 298 298 298 298 298 298
324 323 325 324 321 320 319 318 317 317 317 316 315 313 314 316 318 321 326 329 330 330 330 330 330 331 331 330 329 329 329 330 329 328 328 330 330 329 329 328 325 324 323 322 321 321 322 322 322 322 322 323 323 323 323 323 322 322 322 322 324 325 323 322 323 323 321 321 321 320 317 314 312 311 309 308 307 306 304 303 302 302 301 300 299 299 298 298 298 297 297 297 297 297 296 297 297
321 321 321 322 322 321 320 319 316 315 315 315 316 314 313 318 322 323 326 328 329 330 330 330 330 330 330 330 330 329 330 330 330 329 328 330 330 329 329 328 325 323 322 322 322 322 322 322 322 323 323 324 324 324 324 324 323 324 324 324 325 326 324 324 323 322 322 322 320 318 315 312 310 309 307 306 305 304 303 302 301 300 300 299 298 298 298 298 297 297 297 297 296 296 296 296 296
322 321 320 321 321 319 318 318 317 315 314 314 317 315 314 320 325 325 327 328 328 329 330 330 329 330 330 331 331 331 331 331 331 329 329 330 330 329 328 327 325 323 322 322 322 322 322 322 322 323 323 323 324 324 323 324 324 325 325 326 327 326 325 324 324 323 323 321 318 315 312 310 309 307 306 305 304 303 302 301 301 300 299 298 297 297 297 297 297 297 297 296 296 296 296 295 295
Wind_Speed
2 2 2 1 3 6 6 4 4 3 4 5 2 1 3 2 2 2 2 1 2 2 2 1 1 2 3 3 4 4 4 7 5 2 2 4 6 11 12 12 11 10 10 9 11 10 9 10 9 9 8 7 7 7 7 7 7 7 7 7 6 6 7 6 7 6 6 6 6 6 6 7 7 7 7 7 7 6 6 6 5 5 4 4 5 5 5 6 6 6 6 4 5 5 5 6 5
3 3 2 2 5 7 3 2 5 3 5 5 2 0 3 2 2 1 2 1 1 2 2 1 1 1 2 2 1 1 4 8 8 5 5 7 9 13 14 12 11 10 10 9 10 9 9 10 9 8 7 6 6 6 7 7 7 6 6 6 6 6 6 6 6 6 6 6 7 6 6 6 6 6 6 6 6 5 6 6 6 5 5 4 3 4 3 4 5 6 5 4 3 3 3 3 3
3 4 4 6 7 5 1 3 6 3 5 4 2 2 1 2 2 2 2 1 1 2 4 3 2 1 1 2 1 1 3 6 9 6 5 6 6 11 13 13 12 10 10 9 9 9 10 10 9 8 7 7 7 7 7 8 8 7 7 6 6 6 6 7 6 7 7 7 7 7 7 7 7 7 6 6 5 5 5 5 5 5 5 4 3 3 3 3 4 3 4 3 2 2 2 1 1
3 4 5 7 5 4 4 4 4 4 5 3 1 4 2 2 3 4 4 3 3 3 4 4 3 1 3 1 1 1 4 6 10 7 3 7 5 8 11 12 11 10 9 8 8 9 11 10 9 9 8 8 8 8 8 8 8 8 8 7 8 7 7 7 7 7 7 7 7 8 8 7 7 7 7 6 6 6 5 5 4 5 5 4 4 3 4 4 4 3 2 2 3 3 2 1 1
3 4 5 8 4 2 3 2 3 5 3 2 0 4 3 3 5 6 6 4 2 2 2 3 2 2 1 6 3 1 4 4 10 10 3 3 6 8 10 11 10 9 9 8 9 10 11 11 10 9 9 8 9 9 9 9 8 8 8 8 8 7 6 6 7 7 7 7 7 7 7 7 7 7 7 7 6 6 6 6 4 4 5 5 4 4 4 5 4 3 2 2 2 2 1 2 3
5 6 6 6 1 0 4 3 4 4 1 2 1 4 3 3 5 7 6 2 1 1 1 3 1 3 3 6 6 6 7 2 6 9 5 4 7 9 10 10 10 9 9 10 10 10 11 10 10 9 9 9 9 10 9 8 7 7 7 7 7 6 6 6 7 7 7 7 7 7 7 7 7 7 7 7 7 7 7 7 6 5 5 5 5 4 4 4 4 3 2 1 1 1 1 2 3
7 7 6 5 2 2 6 4 4 3 3 2 2 4 3 4 5 4 4 2 1 0 2 2 2 2 4 4 5 11 13 9 6 5 8 8 8 10 9 9 10 10 10 10 10 10 10 10 10 9 9 9 9 9 8 7 7 7 7 6 6 6 6 6 7 7 7 7 7 7 7 7 7 7 7 7 7 7 7 7 7 7 6 6 5 5 4 3 3 2 1 1 0 2 2 1 1
7 4 3 4 3 4 5 3 2 0 3 1 2 4 2 4 3 2 2 1 1 1 3 3 3 1 3 4 4 9 15 15 11 6 9 10 9 9 8 8 10 9 10 11 10 10 9 9 10 10 9 8 8 7 7 6 6 6 5 5 5 5 6 6 6 7 7 6 7 7 7 7 7 6 6 6 6 6 7 7 7 7 6 6 5 4 3 2 1 1 2 2 1 1 2 1 1
7 4 2 4 2 3 4 3 2 1 3 3 2 3 2 2 1 1 2 1 1 1 4 3 4 1 4 7 6 8 11 12 11 9 10 11 10 9 9 8 9 10 11 11 10 9 9 9 10 10 9 8 7 7 7 6 6 5 4 4 5 5 5 5 6 6 6 6 6 6 7 7 7 7 6 6 6 6 6 7 6 6 6 5 5 4 3 2 1 1 1 2 1 0 1 0 1
5 3 3 3 2 4 4 3 2 2 4 3 3 3 3 1 1 1 3 2 2 1 4 1 2 3 6 7 6 5 6 9 11 11 11 11 10 10 10 9 9 10 10 10 9 8 8 9 9 9 9 9 8 8 8 7 6 5 5 5 5 6 6 5 5 5 5 5 5 6 6 6 7 7 7 7 6 5 5 5 5 5 5 5 5 5 4 4 3 3 2 1 1 0 1 1 2
4 2 3 3 3 4 3 3 3 3 5 3 4 3 3 2 2 1 3 2 2 1 2 1 1 5 7 7 5 2 4 9 13 11 11 11 10 10 10 9 9 9 9 9 8 8 8 8 8 8 9 9 9 9 9 8 8 7 6 6 7 7 6 5 5 5 4 5 5 5 6 6 7 7 7 7 6 5 5 5 5 5 5 6 6 6 5 6 5 5 5 4 2 1 1 2 2
4 3 3 4 3 2 0 2 3 4 5 4 5 4 1 1 2 2 2 1 1 0 2 3 1 1 4 6 4 5 6 9 11 10 10 10 10 10 10 9 8 8 8 8 8 8 8 8 8 8 8 9 9 10 9 9 8 7 7 7 7 7 6 6 6 5 5 6 5 5 6 6 7 7 6 7 7 6 6 6 6 6 6 6 6 6 6 6 6 6 7 6 4 3 3 3 3
2 3 4 2 1 0 1 1 3 4 5 4 4 4 1 1 2 3 2 1 1 1 3 5 1 0 3 6 4 6 7 8 9 9 10 9 9 10 10 9 8 8 8 8 8 8 8 8 8 8 8 9 9 10 9 9 8 8 7 7 8 8 7 7 7 6 6 7 6 6 6 6 6 6 6 7 7 7 7 7 7 7 7 6 6 7 7 7 7 7 6 5 4 3 3 2 2
1 2 4 1 1 2 2 2 4 4 3 5 4 5 2 0 1 3 3 2 2 3 4 4 3 1 4 5 4 4 6 8 8 9 9 9 9 10 10 9 8 8 8 8 8 8 8 8 8 8 8 8 8 9 9 9 9 9 9 8 9 9 8 8 8 8 8 8 8 7 7 6 6 6 6 7 8 7 7 7 8 8 8 8 8 8 8 7 7 7 7 6 4 3 2 2 2
2 2 3 2 3 3 2 0 2 4 2 5 4 5 4 1 2 2 3 3 4 5 1 2 3 1 2 3 3 4 7 8 7 8 10 9 10 10 10 9 8 8 8 8 8 8 8 7 7 7 7 7 7 8 8 9 9 9 9 9 9 9 9 8 9 9 9 9 9 8 7 7 7 8 8 8 8 8 8 9 9 9 9 8 8 8 8 8 8 8 7 6 5 4 3 2 2
2 2 3 2 2 3 3 1 2 3 3 5 4 4 5 4 1 2 2 3 3 4 2 3 5 2 5 7 7 8 9 9 8 9 10 10 10 10 9 8 8 8 8 8 8 8 8 8 7 7 7 8 8 8 7 8 9 9 9 9 9 8 8 8 8 8 8 8 8 8 8 8 7 8 9 9 9 9 9 9 9 9 9 9 8 8 8 8 8 8 8 7 6 5 4 3 3
3 3 4 2 2 1 2 1 1 1 3 5 4 5 5 5 2 1 1 3 2 5 4 6 7 6 8 10 10 10 10 10 9 9 9 9 8 8 7 7 7 8 8 8 8 8 7 7 7 7 7 8 8 7 6 6 8 8 8 8 8 8 8 8 8 8 7 7 7 7 7 7 7 8 9 9 9 9 9 9 10 10 9 9 9 8 8 8 8 9 8 8 7 6 5 3 3
4 3 3 2 0 1 3 3 3 3 1 3 3 4 5 3 3 2 4 4 3 5 6 6 8 9 9 8 9 10 9 9 9 8 8 7 7 6 7 6 7 7 7 7 8 7 6 6 6 6 7 7 7 6 6 5 6 7 6 7 7 7 7 7 7 7 7 7 7 7 7 7 7 8 8 8 9 9 8 8 8 8 8 8 8 8 8 8 8 9 9 9 8 8 6 4 3
4 2 4 1 3 4 5 5 4 3 1 2 2 2 4 1 1 2 4 4 5 4 6 7 7 7 7 6 8 9 9 9 8 8 8 7 7 7 7 7 7 7 6 6 7 6 5 5 6 6 6 6 6 5 5 5 5 6 6 6 6 7 7 7 8 8 8 8 7 7 7 7 7 8 8 8 8 7 7 7 8 8 8 7 7 8 9 9 9 10 10 10 8 8 7 6 5
2 3 4 3 4 3 5 5 4 3 2 1 2 1 1 1 1 2 4 5 5 3 3 4 5 5 4 5 8 9 8 10 9 8 9 8 9 8 7 8 7 7 6 6 6 6 5 6 6 6 6 5 5 4 5 5 6 6 7 7 7 7 7 8 8 8 9 9 8 8 7 7 7 7 7 8 7 6 7 8 8 9 9 9 9 8 8 9 9 9 10 9 7 7 7 7 7
1 3 3 4 1 1 4 4 4 3 1 0 3 2 2 1 2 1 2 4 3 3 5 5 5 6 5 5 7 9 9 10 9 9 9 9 10 8 8 7 6 6 5 5 6 5 5 5 6 5 5 4 4 5 5 6 7 7 7 8 8 8 9 9 9 9 9 9 8 8 7 7 7 7 7 7 7 8 8 8 8 9 9 10 10 9 9 10 9 8 9 8 7 7 7 8 8
1 2 4 4 1 1 4 4 3 3 1 1 3 2 1 1 3 3 3 1 1 1 7 5 4 6 6 7 8 9 9 10 9 10 10 10 10 8 8 7 6 6 5 5 5 5 4 5 5 5 5 4 4 5 6 7 8 8 9 9 9 9 10 10 9 9 9 9 9 8 7 7 7 8 8 9 9 9 9 9 9 9 9 10 10 10 10 10 9 9 9 9 8 8 8 8 8
1 3 5 4 3 3 4 4 4 2 1 2 2 2 1 2 2 3 3 4 1 3 8 7 5 7 7 7 7 8 9 10 10 10 10 11 10 8 7 7 6 5 5 5 5 5 5 5 5 5 5 5 5 6 7 8 9 9 10 10 10 10 11 10 10 10 10 10 9 9 8 8 8 8 9 9 10 9 10 10 10 10 10 10 11 10 10 10 10 9 9 9 9 8 8 8 8
1 4 5 4 5 5 4 5 4 3 3 4 3 4 4 5 3 4 5 5 4 7 8 8 7 8 8 7 7 8 8 10 10 9 10 11 10 8 6 6 5 5 5 5 4 5 6 5 5 6 6 6 6 8 8 9 9 10 10 11 11 12 11 10 10 9 9 10 10 10 9 8 8 9 9 9 10 10 10 11 10 11 11 11 11 11 11 10 10 10 9 9 9 9 8 8 8
3 5 6 5 6 6 5 5 5 5 5 4 3 3 1 1 3 4 4 6 6 8 8 8 8 8 8 7 8 8 8 10 10 10 10 10 10 8 6 5 5 5 5 5 5 6 7 6 6 7 7 7 8 8 9 9 10 10 10 11 11 11 11 10 9 9 9 9 10 10 10 9 9 9 10 9 10 10 11 11 11 12 12 12 12 12 12 11 10 10 10 9 9 9 8 8 8
5 6 6 6 6 6 5 6 5 4 4 1 3 4 3 4 5 4 6 7 7 9 9 8 7 8 8 7 8 9 9 10 10 10 10 10 9 8 7 6 5 5 5 5 5 6 6 7 8 8 8 9 9 9 9 9 9 9 10 10 10 10 10 10 9 9 8 9 10 10 10 10 10 10 10 10 10 10 10 11 11 11 11 12 12 12 12 11 11 10 10 10 10 10 9 8 8
7 7 7 7 7 6 5 6 4 4 5 1 3 6 4 2 1 3 7 8 9 10 9 7 6 7 8 8 8 9 10 9 9 10 9 9 8 8 7 6 6 6 6 5 6 6 7 8 9 9 9 9 9 10 9 9 9 9 10 10 10 11 10 9 9 9 9 9 10 10 11 11 10 10 10 10 10 9 10 10 10 10 11 11 11 12 11 11 10 10 11 10 10 10 9 8 8
9 8 9 8 7 7 5 5 3 2 4 2 4 6 5 3 1 5 9 7 9 11 10 6 6 8 8 9 8 8 9 8 9 10 9 8 7 7 6 6 6 6 6 6 6 7 8 9 10 10 10 9 9 9 8 8 8 9 9 10 10 11 10 9 9 9 9 9 10 11 11 11 10 10 11 10 9 9 9 9 9 10 10 11 11 11 11 11 10 11 11 10 10 9 8 8 8
8 6 6 7 6 6 4 3 2 2 4 3 4 4 4 6 5 7 9 7 9 12 11 9 7 8 8 8 7 7 9 8 8 9 8 7 7 7 7 6 6 6 6 6 6 7 8 9 9 9 9 9 9 8 7 7 8 8 9 9 10 10 10 9 8 9 8 9 10 10 10 10 10 9 10 10 9 8 9 10 10 11 11 11 11 11 11 11 12 12 12 11 10 9 8 8 8
6 3 3 6 5 5 4 3 2 3 5 2 2 2 4 8 7 6 8 8 10 10 11 11 8 7 8 8 7 7 8 8 8 9 7 7 8 8 7 7 5 5 6 5 6 6 7 9 9 9 8 8 8 7 7 8 8 8 8 9 9 9 9 8 8 8 8 8 9 10 10 10 10 9 9 10 9 9 9 10 11 11 12 11 12 12 12 13 13 14 14 13 12 11 10 10 9
4 3 3 3 2 5 5 2 1 2 4 2 1 2 4 7 7 6 6 7 9 9 10 10 9 8 7 7 8 7 7 8 9 8 7 8 8 8 7 7 5 5 5 5 5 6 7 8 8 8 8 7 8 7 8 8 7 7 8 8 9 9 9 8 8 8 8 8 8 9 10 10 10 10 10 10 10 10 10 11 12 12 12 12 13 13 13 14 15 16 17 16 15 14 13 11 9
4 3 3 2 1 5 5 2 1 2 3 2 1 3 6 7 8 6 5 6 7 9 9 9 9 8 7 7 8 7 7 8 9 8 8 8 8 8 7 6 5 4 4 4 5 5 6 7 8 8 8 7 7 8 8 8 7 7 7 8 8 9 8 8 8 8 9 9 8 9 10 10 10 10 10 10 10 10 10 11 12 13 13 14 14 14 15 16 16 17 18 18 17 16 15 13 11
4 2 1 3 2 4 5 4 2 2 1 1 1 1 6 7 8 7 5 6 7 8 8 8 8 7 7 7 7 7 7 8 8 9 9 8 8 8 7 6 4 3 3 3 4 5 6 7 7 8 8 8 8 8 8 7 7 7 7 7 8 9 9 9 9 9 9 9 9 9 9 9 10 10 10 10 10 10 11 12 13 13 14 14 14 15 16 16 17 17 18 18 18 17 17 16 13
3 0 2 3 2 3 4 4 3 1 2 1 1 2 7 8 9 8 6 6 7 8 8 8 7 7 7 7 7 7 7 7 8 9 9 8 9 8 7 6 4 3 3 3 3 5 6 7 7 8 8 8 7 7 7 7 7 6 7 7 8 8 9 9 9 9 10 10 10 9 9 9 10 10 10 10 10 11 12 12 13 13 14 14 14 15 16 16 16 16 17 17 17 17 18 17 15
4 2 2 4 3 2 3 4 3 1 1 1 2 4 7 8 9 8 7 6 7 9 8 8 8 7 7 7 7 7 7 7 8 9 9 9 8 7 6 5 4 4 3 3 4 4 6 7 7 8 8 7 7 7 6 6 6 6 6 7 8 8 9 10 9 10 10 10 10 9 9 9 10 10 10 10 11 11 12 12 12 13 13 14 14 14 14 15 16 16 16 16 16 16 17 18 16
5 4 3 4 4 3 4 5 3 1 1 2 3 4 6 7 8 8 8 7 7 9 8 7 7 7 7 6 6 7 7 8 9 10 9 9 8 7 5 5 5 5 4 4 4 5 6 7 7 7 6 6 6 5 5 4 4 5 6 6 8 8 8 9 10 10 10 10 10 10 10 10 10 10 10 11 11 11 11 11 12 12 12 12 12 13 13 13 14 14 14 15 15 15 15 18 18
5 4 4 4 3 5 4 4 5 1 2 3 3 4 7 7 7 8 8 8 8 9 9 8 8 7 7 6 7 8 8 8 10 9 9 8 8 6 5 5 6 5 5 5 5 6 6 7 7 6 5 5 4 3 3 3 4 5 6 6 7 7 7 8 9 9 10 10 10 10 10 11 11 11 11 11 11 11 11 11 11 11 11 11 11 11 12 12 13 13 13 14 15 15 15 17 19
4 4 4 3 3 5 5 3 4 1 2 3 3 3 7 7 7 8 8 8 9 10 10 9 10 8 6 7 8 8 7 8 10 9 8 8 7 7 6 6 6 6 6 6 6 7 7 7 7 6 5 4 3 3 3 4 4 5 6 6 7 7 8 8 8 9 8 9 10 10 10 11 11 12 12 11 11 11 10 10 10 10 10 10 10 11 11 12 13 14 14 15 15 16 15 16 18
3 3 2 3 4 5 5 4 3 2 2 4 5 3 5 6 6 7 7 7 8 9 9 9 10 9 7 7 8 8 8 8 9 9 9 8 7 7 7 6 6 7 7 7 7 8 8 7 7 6 5 4 3 3 4 5 5 5 6 6 7 8 8 8 7 7 8 8 9 9 10 10 11 12 11 11 11 10 9 9 9 10 10 11 11 12 12 13 14 15 14 15 16 16 16 16 16
3 3 2 4 4 2 3 5 4 2 1 3 5 4 4 5 5 6 7 7 6 7 8 8 8 9 8 8 8 8 9 9 9 9 9 8 8 7 7 8 7 7 7 7 8 8 8 7 7 6 6 5 5 5 5 5 4 5 6 6 7 7 7 7 6 7 7 8 8 9 9 10 11 11 11 10 10 9 9 9 9 10 10 11 12 13 14 14 15 16 14 14 15 16 16 16 15
4 4 3 4 4 1 3 5 6 4 3 4 5 4 4 7 8 7 8 8 7 8 9 9 8 8 8 8 8 8 9 9 10 10 10 10 9 8 8 8 7 7 8 8 9 9 9 9 8 7 7 7 6 5 5 5 5 6 6 6 7 7 7 7 7 7 7 7 9 9 9 9 9 10 10 10 9 9 9 9 10 10 10 11 11 12 13 14 15 16 15 14 14 14 16 16 13
4 4 4 4 4 2 4 6 6 4 5 5 5 3 4 8 9 9 9 9 9 9 10 11 10 9 9 8 9 9 9 9 9 10 11 11 10 9 9 8 7 8 9 10 10 10 10 10 9 8 8 7 6 5 5 6 7 7 7 8 8 8 8 7 7 7 8 9 9 8 7 8 8 8 9 9 9 9 9 10 10 11 11 11 12 12 13 14 14 15 14 13 14 13 14 14 13
4 4 3 5 5 5 5 4 3 1 4 4 4 4 2 7 9 10 10 11 11 11 11 12 11 11 10 9 9 9 9 9 9 10 11 12 11 10 10 9 8 9 10 10 11 10 10 10 9 9 8 8 7 5 5 6 7 7 8 9 9 9 8 8 7 7 8 9 9 8 7 6 7 7 8 8 9 9 10 10 10 11 12 12 12 12 13 14 13 13 13 13 13 13 13 13 12
4 5 5 5 6 7 5 3 1 2 2 4 4 4 2 3 6 9 12 12 12 12 13 13 12 12 12 11 10 11 11 10 10 9 11 12 12 12 11 10 10 10 10 10 10 10 10 9 8 8 8 7 6 5 6 6 7 8 8 9 10 10 10 9 8 7 7 7 7 7 7 6 6 7 7 8 9 10 10 10 11 11 12 12 12 12 12 12 12 12 13 13 12 12 12 12 12
6 7 6 5 6 6 3 2 2 2 1 3 3 3 3 3 5 7 11 11 12 13 14 14 14 14 14 13 12 12 12 11 11 10 11 13 13 13 12 11 11 11 11 11 10 10 10 8 7 7 7 7 6 5 6 6 7 8 8 9 9 10 10 10 9 8 7 6 6 5 5 5 5 6 7 8 10 10 10 11 11 11 11 11 12 11 11 12 12 12 12 12 12 11 11 11 11
7 8 5 5 5 5 2 2 1 1 2 2 3 2 3 2 6 6 8 9 11 12 13 14 15 15 14 13 13 13 12 11 11 11 12 14 14 14 13 11 12 12 12 11 10 10 9 7 7 7 7 6 5 5 6 6 6 6 7 8 8 9 10 9 9 9 7 6 6 5 4 4 5 6 7 8 10 10 10 11 10 10 10 10 11 10 11 11 11 11 11 11 12 11 11 10 10
10 8 6 6 5 4 3 2 1 3 2 4 2 2 4 0 4 5 6 7 8 9 10 13 14 15 15 14 13 13 12 11 11 11 13 14 15 15 14 13 13 13 12 12 11 10 9 7 7 7 7 5 5 4 5 5 5 5 6 7 7 8 9 9 8 9 8 7 6 5 4 4 5 6 7 8 9 10 9 10 9 9 10 10 11 11 11 11 10 10 10 11 11 11 11 11 10
9 5 4 4 4 4 3 3 3 2 3 4 0 2 5 3 2 4 5 6 6 6 7 12 15 16 15 14 14 13 12 12 11 11 12 14 15 16 15 14 14 14 13 13 11 10 10 8 7 7 6 5 4 4 4 4 4 4 5 5 6 6 7 7 8 7 7 7 6 5 4 4 5 7 7 7 8 9 8 9 9 9 10 11 11 11 11 10 10 10 11 11 11 11 12 11 11
6 3 4 4 1 1 1 1 1 2 5 3 0 2 4 3 2 3 5 6 6 5 5 8 13 16 16 15 14 13 12 12 12 11 11 13 15 16 17 16 16 15 14 14 13 11 10 9 8 8 7 6 5 5 4 4 4 4 3 4 4 4 4 5 6 5 4 4 4 4 4 5 6 7 7 7 8 8 8 8 9 9 10 11 11 10 10 11 10 10 10 11 11 12 12 11 11
6 3 3 3 2 2 2 2 2 3 4 3 1 3 3 1 2 2 3 4 4 5 6 6 8 12 15 15 15 14 13 13 12 11 11 12 15 17 18 17 17 16 15 15 14 13 11 10 9 8 8 7 6 5 5 5 5 4 3 3 3 3 3 3 3 3 3 2 2 3 4 6 7 7 6 6 7 7 7 8 9 10 10 10 10 10 10 11 10 10 10 11 10 11 12 11 11
3 2 3 3 2 3 4 3 4 4 2 3 3 3 3 2 2 2 3 2 2 4 6 6 7 8 12 14 15 14 14 13 12 12 12 13 15 17 18 18 17 16 16 16 15 14 12 11 11 10 9 8 7 6 6 5 5 5 4 4 3 2 2 2 1 1 1 1 2 4 5 5 6 5 5 6 6 6 7 8 9 9 10 10 10 10 10 10 11 10 10 11 10 10 11 11 10
2 2 3 2 3 3 3 2 4 4 2 1 2 2 3 2 4 3 3 4 4 4 5 8 9 8 9 12 14 14 13 13 13 12 12 13 16 17 17 17 16 16 17 16 16 15 14 12 12 11 10 9 8 7 7 6 5 4 5 5 4 3 2 2 1 1 2 2 3 4 4 4 4 4 5 5 5 6 7 8 8 9 9 10 10 10 10 10 10 10 10 11 10 10 10 11 11
3 3 1 2 3 3 2 0 1 3 2 1 1 2 1 3 3 2 3 5 5 4 5 8 10 10 10 10 12 13 13 13 13 12 12 14 15 16 16 17 16 16 16 17 17 16 15 14 12 12 11 9 9 8 7 6 5 5 5 5 5 5 5 4 3 3 3 4 4 3 2 2 3 3 5 5 6 7 7 8 8 9 10 10 10 10 10 10 10 10 10 11 11 10 10 10 11
2 1 2 2 1 3 2 1 1 2 2 2 2 4 3 1 0 2 4 5 5 5 6 8 10 11 10 10 12 13 14 14 13 13 13 14 16 16 16 16 16 16 16 17 17 16 15 15 13 12 12 11 10 9 8 7 6 5 5 5 6 6 6 4 4 5 5 4 3 1 1 2 3 4 5 6 7 7 8 8 8 9 9 10 10 10 10 10 10 10 10 10 10 10 9 10 11
3 3 1 2 2 1 1 1 3 3 3 2 2 4 3 2 3 2 3 4 5 5 6 9 11 11 10 10 13 14 14 13 13 13 13 13 15 16 15 15 16 17 16 16 17 17 16 15 14 13 12 11 10 9 8 8 6 6 5 4 5 6 6 5 5 5 5 4 2 1 1 2 4 5 6 7 7 7 7 8 8 8 9 9 9 9 10 10 10 10 10 10 10 10 10 10 11
3 1 2 3 3 3 1 2 3 4 4 3 4 4 1 4 6 5 1 3 6 6 6 8 9 10 9 9 12 14 14 13 12 13 12 13 16 16 16 16 16 17 17 16 17 17 16 15 15 14 12 11 11 10 9 8 7 6 5 4 4 4 5 5 5 5 4 3 2 3 3 3 6 7 7 7 7 7 7 8 8 8 8 8 9 9 9 10 10 10 9 9 10 11 11 11 11
4 4 3 3 2 2 2 1 2 4 4 3 4 5 2 5 5 4 2 2 5 6 7 7 7 9 9 9 12 13 13 12 12 12 12 14 16 16 17 16 16 16 17 16 16 16 17 16 15 14 13 12 12 11 10 9 8 7 6 5 4 4 4 4 5 4 3 4 5 5 4 6 8 8 8 8 8 8 8 8 7 8 8 9 9 9 9 9 9 9 9 10 11 12 12 12 12
3 2 2 2 2 2 3 1 0 2 4 4 5 5 3 4 4 2 2 1 3 5 6 6 7 9 9 10 11 12 13 12 13 13 12 14 17 17 17 17 16 16 16 17 16 16 16 16 16 15 14 13 13 12 11 10 9 8 7 5 4 4 5 5 5 5 6 7 6 6 6 8 9 9 9 8 8 8 8 7 7 8 8 8 9 9 10 9 9 9 9 10 11 12 12 12 13
Wind_Direction
205 264 269 216 205 228 215 224 243 191 246 251 221 225 119 63 336 236 147 140 203 80 35 325 343 345 329 334 22 51 39 2 6 1 55 85 108 111 108 104 102 98 93 87 87 90 90 90 91 93 92 91 90 88 86 81 77 75 72 71 64 65 70 72 72 71 71 71 72 69 68 67 68 64 64 64 63 64 56 54 58 65 67 69 78 75 80 92 94 94 94 89 83 80 76 78 78
262 260 232 206 204 228 202 212 258 206 232 241 188 237 87 114 230 244 44 340 299 79 134 147 126 66 354 322 339 49 49 39 48 63 78 97 103 92 95 97 95 93 86 86 86 90 88 84 89 89 92 93 90 86 84 78 74 72 68 68 62 59 61 66 69 69 69 69 70 69 67 65 65 61 59 59 56 61 58 56 56 54 56 59 63 67 66 94 109 113 116 106 92 87 83 87 85
250 249 211 197 198 233 205 205 254 238 236 245 156 116 117 179 141 94 95 166 115 129 166 162 167 147 251 229 227 350 50 62 55 69 71 52 84 83 88 93 91 93 87 88 85 85 83 83 88 86 88 89 88 83 80 76 71 72 70 71 66 60 59 63 67 68 70 68 68 67 66 65 65 62 59 57 53 56 60 61 62 58 58 56 46 57 60 77 101 111 130 138 143 134 104 99 76
204 239 217 203 195 224 221 214 249 258 245 257 139 120 157 171 115 130 140 136 133 168 179 183 164 142 283 352 76 60 63 71 47 51 54 21 56 78 85 93 90 89 86 89 86 81 81 85 88 87 89 86 89 85 78 74 72 74 73 73 69 65 64 65 68 68 68 66 63 62 62 63 65 64 63 59 54 53 58 63 63 59 59 60 49 53 62 67 78 86 123 157 171 174 181 219 238
203 216 213 227 226 203 232 242 241 252 262 301 25 111 145 143 133 145 130 119 129 195 203 217 145 103 315 28 28 334 34 71 60 60 77 47 87 94 93 98 93 91 88 86 82 76 78 87 91 88 87 82 84 81 75 71 69 71 70 70 68 67 66 65 68 67 65 64 62 61 62 64 64 63 63 60 59 57 60 65 64 61 55 60 59 61 66 73 84 90 103 111 138 175 203 235 241
191 180 187 236 284 62 241 233 225 232 34 343 335 99 134 127 135 140 118 110 93 322 301 271 283 109 109 55 46 37 22 22 65 64 103 123 109 103 99 102 97 93 88 83 79 76 76 83 88 86 81 76 76 76 75 72 71 72 71 70 71 71 69 68 68 68 66 65 65 65 66 66 63 60 59 58 62 63 64 66 64 64 60 61 65 64 64 70 80 84 87 85 124 211 216 240 245
191 175 172 204 143 216 243 228 228 208 101 348 344 89 127 118 129 145 126 144 145 110 7 349 332 108 112 93 80 54 42 57 79 82 114 124 112 103 102 99 94 88 84 81 79 77 74 78 83 83 76 71 73 77 79 78 78 78 75 72 73 73 70 69 68 70 68 66 66 66 64 62 60 57 58 60 62 64 65 64 59 57 55 56 56 54 52 56 64 62 47 5 288 211 212 227 231
200 200 188 208 175 210 243 224 232 222 101 100 37 70 104 112 132 192 168 192 32 72 75 55 358 359 93 89 90 63 60 76 97 105 101 106 100 97 99 93 92 87 86 83 79 77 73 74 78 78 75 71 71 73 74 73 73 72 72 73 75 74 71 71 71 71 68 67 66 65 65 61 59 59 62 65 65 63 62 59 56 51 45 46 44 43 41 39 39 29 39 33 49 193 200 199 220
196 215 212 225 209 199 231 212 183 82 112 132 112 91 89 96 132 260 251 267 25 53 81 53 339 327 116 87 83 78 82 96 106 105 96 98 97 95 92 91 96 90 88 88 83 83 78 74 77 79 79 78 77 72 70 66 69 76 85 91 90 86 81 77 76 76 74 70 67 70 72 68 65 63 64 64 64 62 60 59 56 49 44 44 39 32 26 10 337 329 28 47 43 174 200 254 299
190 224 218 221 221 200 213 200 164 129 123 131 126 118 134 153 205 256 287 338 40 43 78 33 335 100 113 84 80 74 91 112 106 102 102 101 102 101 95 91 93 89 89 91 90 89 82 74 75 81 82 83 81 77 75 76 79 87 97 101 95 91 84 74 75 77 79 78 74 76 74 71 67 62 61 60 58 61 63 61 55 50 46 44 40 29 21 9 353 343 338 344 355 338 250 280 289
188 192 229 222 217 219 216 175 156 133 124 143 138 124 148 170 258 271 286 321 31 20 71 276 253 100 105 83 75 94 108 104 94 96 105 107 107 103 98 91 86 89 91 92 91 87 81 73 68 73 77 78 76 74 74 76 80 82 84 85 85 86 80 72 70 71 79 83 81 80 74 68 66 63 62 58 58 61 59 55 52 50 45 41 34 23 18 12 6 0 352 342 322 308 294 286 276
199 157 222 228 221 226 265 159 140 130 137 160 142 118 116 168 254 285 275 287 21 245 57 17 351 78 113 96 84 139 120 89 89 99 108 109 106 101 98 95 91 93 91 87 85 85 84 78 72 70 75 76 73 72 72 73 77 80 79 78 84 86 81 78 74 73 77 78 81 83 78 71 68 68 65 60 59 61 57 52 50 46 40 35 27 18 13 9 6 5 360 355 342 319 303 301 289
213 175 226 215 252 230 149 167 131 149 156 148 122 102 54 217 250 328 313 292 12 273 57 27 339 245 108 105 96 122 107 87 102 109 108 108 103 100 98 96 92 89 86 85 84 81 83 84 83 82 84 82 77 76 80 83 85 86 83 80 86 85 80 80 78 77 75 72 76 77 75 73 71 69 65 64 60 58 54 47 43 39 33 26 23 17 10 6 3 4 360 360 4 346 318 311 298
206 199 257 172 178 210 170 170 153 194 161 119 112 111 130 235 335 343 304 253 65 20 46 24 318 175 129 124 104 96 102 102 113 110 104 103 100 101 99 97 92 87 85 84 85 83 86 90 91 89 88 86 83 81 83 87 91 91 87 82 81 83 82 80 77 73 69 67 68 69 71 75 74 70 65 62 59 54 48 42 39 35 30 25 24 20 15 14 10 8 5 3 10 6 345 318 300
218 191 256 173 171 196 182 224 169 226 151 125 136 132 153 108 333 289 327 323 74 35 12 60 347 250 151 126 122 117 123 120 122 116 107 103 103 101 98 97 94 92 91 89 88 86 87 90 88 87 85 85 86 84 79 80 87 90 84 78 75 77 76 72 69 66 63 63 64 64 70 71 68 66 60 59 57 52 47 43 40 36 33 28 24 23 21 21 19 18 15 13 13 8 358 332 320
256 214 236 186 186 213 178 184 205 237 126 119 136 155 171 130 277 276 26 321 100 67 355 54 28 25 80 95 127 132 131 130 132 123 114 114 110 104 103 105 105 99 93 88 84 81 81 85 85 82 79 79 83 84 81 76 77 77 70 66 65 66 67 65 62 60 59 59 61 60 62 62 58 56 53 54 52 49 49 46 44 39 34 29 25 25 24 24 23 21 20 18 16 8 1 349 348
244 234 248 208 202 231 118 172 223 280 102 120 148 179 200 159 196 289 117 241 156 91 58 62 59 66 79 97 121 125 127 130 133 128 122 125 119 113 114 114 111 101 89 82 74 74 78 81 83 80 75 76 83 86 83 74 68 67 61 57 54 54 58 60 56 51 50 47 52 53 52 53 49 49 50 53 51 48 48 45 42 35 31 29 25 25 25 26 21 19 19 14 12 9 7 348 336
244 238 255 253 224 31 26 341 340 328 115 134 150 194 234 201 162 186 187 184 139 108 94 91 84 82 85 96 113 119 122 121 125 125 120 122 118 114 111 106 102 95 90 83 72 72 78 79 81 79 77 82 90 91 85 75 66 64 60 56 52 50 52 55 54 49 46 41 43 46 47 49 48 51 54 58 57 51 46 42 36 29 28 25 22 23 21 20 16 16 12 8 9 8 5 347 330
269 290 260 322 31 36 21 348 341 320 336 103 127 206 252 278 107 196 210 167 145 134 115 115 98 83 90 111 119 115 111 110 112 110 105 105 103 100 97 95 93 91 90 87 80 75 80 80 77 80 87 91 92 88 84 77 66 59 53 51 49 48 49 49 49 46 46 44 45 48 49 52 53 56 56 55 55 45 36 31 29 26 22 17 18 17 9 6 8 7 4 7 11 3 359 356 355
299 300 274 32 45 46 37 2 348 342 331 182 132 128 200 77 160 207 243 209 169 138 92 111 118 106 113 131 119 109 105 103 104 101 101 98 93 87 87 89 90 87 83 87 87 78 81 85 84 87 93 94 89 81 75 70 62 56 47 44 43 43 44 43 43 42 42 41 44 46 46 49 51 52 47 43 41 32 26 24 25 26 20 17 21 16 2 1 4 360 357 3 6 0 359 359 0
337 308 314 40 30 42 44 10 1 9 315 235 106 134 149 152 238 244 261 222 169 85 59 73 123 134 135 135 119 114 112 106 107 108 108 103 93 89 89 89 86 82 81 86 89 85 85 92 95 96 95 95 91 83 73 66 59 56 48 42 42 42 44 42 40 39 38 35 37 40 40 40 40 41 36 31 30 27 26 25 23 24 21 19 19 15 7 4 4 359 357 360 359 1 2 0 1
88 48 23 39 320 25 49 27 25 26 358 133 125 154 88 338 293 7 35 116 259 41 91 106 134 132 130 129 123 119 117 113 112 112 111 105 97 97 98 96 93 90 90 91 92 93 91 103 109 107 104 102 94 89 77 69 63 57 51 45 43 43 44 43 40 39 37 34 31 31 30 31 33 36 34 30 29 27 26 23 21 22 19 19 17 12 10 7 4 2 2 1 357 359 0 358 360
247 83 59 45 35 57 63 50 46 32 56 98 97 108 109 218 177 105 119 132 175 59 100 136 135 111 115 117 118 116 114 109 106 107 108 105 102 102 100 99 99 97 97 98 101 100 100 112 117 116 111 104 94 88 79 73 67 61 56 50 46 44 43 42 40 37 38 37 32 30 27 28 31 32 32 31 30 26 24 21 18 17 15 15 14 10 8 5 3 2 2 359 355 354 357 355 352
295 107 93 69 63 70 66 64 66 54 60 67 103 147 199 211 164 137 145 122 110 84 98 133 122 113 119 117 114 108 107 105 102 102 101 102 102 100 97 98 101 105 108 106 106 106 112 120 122 121 114 105 94 83 77 74 68 64 60 55 51 47 45 41 38 36 36 36 34 32 28 28 29 30 30 29 28 24 20 17 13 13 11 9 8 7 4 1 360 359 356 354 352 347 350 351 345
75 116 120 99 80 74 68 73 77 73 79 90 136 156 205 137 95 103 100 76 96 106 107 119 115 119 121 120 118 110 108 104 103 99 96 100 104 105 103 106 112 114 115 115 109 104 109 119 121 116 105 97 90 82 78 74 69 66 61 57 53 47 44 39 35 33 34 35 36 33 30 28 27 27 25 22 21 18 15 13 11 10 10 7 4 4 2 358 356 354 351 348 346 340 340 345 340
90 117 124 113 94 81 75 75 75 80 91 133 136 101 62 70 84 100 93 84 106 116 111 110 114 120 120 123 121 114 110 106 105 103 101 106 110 114 114 116 118 113 118 118 105 97 104 114 111 106 101 95 89 84 79 74 70 65 59 53 47 41 36 32 31 32 33 35 35 32 30 28 25 23 19 15 13 14 13 12 13 11 11 9 5 3 360 356 353 351 349 344 341 336 332 334 332
111 116 110 102 94 87 83 84 94 94 90 145 123 102 108 100 81 106 104 111 121 119 111 109 125 128 124 119 113 110 110 110 111 112 115 119 117 119 122 123 119 117 120 110 97 99 105 108 104 103 102 97 90 85 81 75 69 62 55 49 42 34 27 24 28 32 34 34 33 30 29 27 24 22 18 14 12 14 15 15 16 14 13 11 7 4 0 359 356 354 351 346 342 335 327 326 324
123 122 108 99 98 95 95 94 112 130 98 80 87 107 127 121 96 96 108 129 125 119 116 116 122 122 117 110 112 114 115 120 126 126 124 120 119 123 125 121 118 118 108 96 97 105 107 105 104 105 104 99 93 88 83 77 68 61 54 45 38 30 22 22 27 31 33 33 31 28 27 25 23 22 20 17 16 20 19 18 19 17 16 13 10 8 6 7 5 2 359 354 350 342 334 330 323
127 138 119 114 119 99 90 92 97 140 112 62 61 105 106 90 90 98 113 133 126 124 126 124 119 117 118 117 122 122 122 133 133 124 115 113 117 119 117 111 111 107 97 95 99 106 110 109 107 109 107 102 97 92 83 73 65 59 50 42 35 27 22 25 29 31 30 29 29 27 25 25 23 22 22 19 19 23 23 22 21 21 18 16 14 14 16 18 17 14 10 6 3 356 351 345 338
140 166 146 142 147 107 85 93 119 130 122 107 57 91 82 86 102 108 116 129 129 129 125 125 128 127 129 127 125 119 125 137 124 112 115 119 115 109 106 103 100 94 96 101 106 114 116 117 118 116 114 108 101 92 80 72 65 53 41 37 31 24 23 28 31 30 29 27 29 30 28 28 28 26 25 24 22 24 28 27 26 25 21 23 25 25 27 28 25 23 17 15 12 6 4 360 356
150 157 173 188 176 108 98 92 161 141 138 177 31 93 102 94 105 111 121 133 132 128 123 125 128 128 132 129 123 120 126 125 114 114 120 117 109 106 102 96 90 89 99 107 113 124 124 126 128 125 121 113 102 91 82 76 67 50 38 37 32 26 28 33 32 29 29 28 31 33 31 30 32 32 33 30 28 30 33 34 32 30 30 33 34 32 33 32 28 25 21 18 16 13 13 9 9
142 161 167 181 109 109 118 105 24 61 129 172 348 105 109 99 104 108 126 139 133 128 126 127 123 125 129 126 123 121 124 122 122 126 122 113 108 104 97 89 85 87 101 115 124 130 126 129 130 128 125 114 103 95 88 82 71 59 53 49 38 33 36 39 36 31 31 30 33 36 34 34 36 38 38 36 35 38 40 43 40 38 39 39 36 34 33 31 27 24 22 19 16 16 16 14 15
152 214 97 88 103 127 138 134 86 7 36 113 304 81 100 108 113 111 128 141 139 132 127 128 124 128 132 128 128 127 130 135 137 132 120 112 105 98 93 89 87 89 99 120 134 138 134 135 133 129 124 115 106 99 93 85 78 70 64 55 45 42 40 39 37 35 35 33 35 38 37 38 39 39 39 39 40 44 48 51 48 44 43 40 39 38 34 30 26 22 21 20 18 17 17 17 17
120 166 78 87 93 128 138 135 134 299 333 50 308 73 99 117 122 121 131 144 150 142 135 138 134 141 145 138 138 139 142 143 137 127 118 110 103 99 97 97 97 99 103 114 128 139 141 140 136 130 124 118 109 103 96 88 84 73 62 53 48 49 44 39 37 38 38 37 38 39 40 39 40 40 39 41 45 51 58 57 51 46 44 42 40 40 36 31 26 22 20 19 19 19 18 17 13
54 49 93 114 112 97 98 113 119 296 300 105 118 99 104 119 125 126 135 157 165 148 145 149 145 151 151 146 145 145 145 137 128 125 120 114 110 107 104 106 107 103 101 106 117 133 139 139 136 130 124 118 111 106 100 91 86 69 58 53 48 48 47 42 39 41 40 40 42 40 40 40 41 41 42 47 52 59 62 57 50 47 47 44 40 38 34 29 23 19 17 16 18 21 22 18 11
49 55 72 105 117 95 86 101 93 337 272 91 83 103 120 134 136 135 139 162 170 151 153 156 153 160 157 152 148 147 146 131 126 129 126 121 117 114 111 110 107 102 102 105 115 126 133 137 136 130 123 118 115 108 97 85 72 55 48 51 51 47 49 47 42 43 45 43 42 42 43 43 43 46 52 56 57 61 60 54 49 46 46 42 37 34 28 23 19 15 13 12 13 14 17 17 10
80 87 91 98 110 100 97 112 109 292 283 87 76 112 132 144 145 146 149 162 172 164 167 168 163 168 161 158 157 151 144 129 129 132 128 125 123 123 120 114 109 104 102 104 113 121 127 135 134 130 125 123 117 94 71 52 46 51 55 57 56 52 53 56 53 48 50 46 42 45 47 48 51 56 61 62 59 60 58 53 48 43 40 36 32 28 22 18 14 13 11 9 10 7 8 11 5
96 91 103 107 92 97 102 112 116 254 282 113 134 145 135 143 146 152 162 170 178 176 177 175 169 170 165 165 162 149 137 132 137 138 134 134 133 131 122 113 105 99 99 102 110 117 123 127 127 125 124 124 114 85 73 58 47 51 58 58 56 55 50 53 58 54 53 52 46 49 52 55 64 68 67 64 61 58 55 50 44 37 33 27 24 21 16 13 10 9 7 5 6 3 4 6 2
99 91 110 96 92 112 121 134 146 222 266 129 160 180 138 142 150 160 177 184 184 183 183 180 174 175 173 170 164 152 146 146 147 145 145 146 138 131 122 109 98 93 98 104 111 119 121 121 120 117 114 111 107 102 93 80 68 60 61 62 59 64 61 56 60 58 59 60 54 57 61 64 72 73 70 67 62 55 46 41 35 28 23 16 15 13 9 7 5 5 3 0 359 357 358 360 2
73 68 67 83 118 168 118 140 170 194 246 137 169 183 145 154 168 174 190 195 189 188 191 191 187 186 178 175 170 162 158 155 155 154 153 153 146 138 127 116 108 102 103 107 114 118 117 115 113 111 106 100 100 102 93 84 86 80 73 70 65 71 75 71 73 69 67 70 68 70 69 66 71 71 66 65 58 46 34 28 21 17 12 7 7 6 4 3 1 1 359 355 353 353 352 351 358
67 50 36 74 127 267 42 126 162 169 165 171 185 188 162 174 185 182 187 196 195 194 198 199 198 196 188 181 176 171 167 163 162 161 160 160 155 147 136 126 120 110 104 108 114 113 111 110 107 106 102 96 95 96 93 93 97 94 89 86 81 82 84 82 83 76 73 80 81 81 74 66 68 66 60 56 46 34 23 14 9 6 3 0 360 358 359 358 357 360 359 355 355 355 349 346 356
97 70 51 82 119 113 102 142 176 181 151 160 205 221 150 167 188 184 175 188 197 195 200 204 199 196 196 191 184 178 171 168 168 166 163 162 158 150 142 136 129 114 109 113 115 112 110 107 104 100 97 94 94 95 97 98 98 96 93 90 87 86 82 79 82 80 81 87 89 84 75 65 63 57 50 42 29 20 12 4 0 359 357 357 356 355 357 358 359 3 5 2 2 1 353 350 360
108 100 107 117 121 126 138 171 220 279 94 129 223 279 108 158 187 182 174 187 196 194 201 205 200 197 198 195 189 184 177 173 172 170 164 162 161 155 151 148 140 128 124 124 120 118 114 109 106 103 99 98 98 103 105 100 100 97 92 87 84 84 86 86 86 87 89 91 91 86 78 65 55 47 36 27 18 11 4 359 358 358 358 359 0 2 6 9 11 13 15 13 8 8 4 360 2
88 127 158 142 137 142 157 212 287 34 88 146 205 271 293 157 168 174 179 190 195 196 203 204 202 201 198 196 191 186 184 177 172 172 166 163 164 163 160 157 149 143 140 137 132 128 124 120 117 111 106 103 102 108 109 105 104 101 98 93 88 87 89 94 94 94 94 92 89 84 77 64 50 40 27 17 10 4 1 1 1 2 5 8 10 15 20 23 26 24 23 21 16 16 16 9 3
100 150 168 146 148 148 169 260 32 52 212 156 151 236 261 142 135 166 184 196 203 202 204 203 201 200 196 195 192 187 185 179 175 174 169 166 168 168 166 159 155 154 152 149 145 140 136 135 132 124 119 114 109 110 106 106 108 105 102 99 97 95 93 94 97 96 93 91 92 83 68 58 45 32 19 10 7 6 6 8 9 12 18 21 22 28 32 33 33 31 28 27 23 20 19 14 6
125 160 157 142 158 158 195 269 30 182 236 69 93 235 274 128 132 165 185 204 214 207 205 203 199 198 195 194 191 187 184 180 178 174 170 169 169 170 169 162 159 159 159 159 156 151 149 151 151 142 133 128 124 118 111 111 114 108 104 103 102 100 95 95 98 95 93 94 92 82 61 45 32 21 9 7 11 14 16 18 21 27 33 34 33 35 35 32 32 31 30 29 25 20 15 11 8
139 162 156 154 169 179 225 254 236 226 154 80 76 260 275 200 122 153 179 201 214 206 201 199 197 196 193 191 190 188 184 180 179 175 171 170 169 171 172 167 165 165 166 168 166 163 162 165 168 156 146 145 144 137 125 121 117 108 105 104 102 99 95 96 97 92 93 95 86 73 55 34 22 12 5 10 18 21 25 29 35 40 42 43 39 36 32 27 27 25 24 23 21 19 13 7 7
158 179 175 183 182 188 217 204 217 259 79 82 79 241 252 258 95 131 163 175 195 206 196 191 195 196 190 189 190 187 185 181 179 177 171 169 170 173 176 173 171 171 173 175 176 174 172 174 176 171 166 169 169 160 148 140 130 115 111 106 102 100 91 89 93 89 87 88 76 60 36 17 8 3 6 18 26 29 33 37 42 44 44 45 41 36 31 25 22 21 20 18 17 16 13 11 10
198 215 209 233 225 159 220 163 168 32 63 59 342 208 237 255 81 126 169 181 191 203 205 192 194 194 189 187 187 185 184 182 180 178 172 170 173 175 178 178 177 178 180 181 182 181 181 182 183 182 179 181 182 175 169 166 154 139 136 123 110 108 95 84 87 88 86 80 56 35 10 358 356 356 8 27 34 35 40 44 48 50 47 45 42 37 32 26 22 20 19 18 18 17 15 15 15
218 228 245 283 353 14 10 44 48 55 79 69 100 201 239 220 115 116 158 182 189 198 217 212 198 195 188 184 185 183 183 183 181 179 174 174 176 177 178 181 182 183 185 185 185 186 187 187 190 191 186 185 190 186 186 184 173 170 169 159 132 111 104 96 86 81 81 57 14 2 349 345 348 356 20 43 46 47 53 55 56 55 50 45 41 36 31 27 23 20 20 20 21 20 18 17 16
200 272 290 302 339 351 2 21 22 24 69 101 140 218 314 4 168 136 115 144 193 219 224 216 205 196 186 183 183 182 182 184 182 179 177 175 176 176 178 183 185 185 186 188 188 188 191 191 194 199 193 188 194 197 201 195 178 180 187 189 189 148 114 125 130 87 24 342 336 338 336 340 352 13 49 61 61 63 65 64 60 55 50 44 39 34 29 27 24 24 24 24 24 22 19 18 15
148 255 260 300 352 350 353 5 2 347 325 112 157 244 355 67 158 160 174 210 222 231 222 205 195 186 181 183 183 181 181 183 181 179 177 174 174 175 177 181 185 185 186 190 191 190 193 195 195 201 199 193 197 203 206 203 192 189 196 203 210 217 221 209 213 244 264 292 311 325 333 346 16 52 73 76 77 77 72 67 61 54 49 43 38 33 28 26 27 30 30 27 25 22 20 20 16
151 214 216 48 353 315 311 257 228 281 283 49 9 302 77 124 148 159 211 220 208 200 199 191 183 172 173 180 182 180 180 181 180 178 175 174 174 175 177 181 184 186 187 189 193 193 195 198 197 200 201 198 201 204 205 207 207 206 212 216 215 224 235 232 238 257 255 269 296 316 338 17 57 83 90 90 90 84 77 70 60 53 48 42 37 33 30 29 31 34 33 29 25 20 20 20 17
192 176 83 117 262 287 292 284 244 278 326 44 21 339 353 67 111 151 181 194 187 182 177 172 170 167 169 176 180 181 180 179 178 177 175 175 177 177 179 181 183 187 189 189 192 195 196 200 201 200 200 200 202 205 207 208 212 221 233 235 229 230 237 239 246 254 255 264 280 287 87 87 92 98 102 101 95 86 77 69 61 53 46 41 37 34 33 33 35 35 33 30 25 21 20 20 17
296 9 92 216 275 279 187 301 325 340 350 17 13 338 342 26 27 64 154 177 180 175 170 169 169 170 172 175 179 181 179 177 178 178 176 176 179 179 179 182 182 186 191 190 191 195 197 200 203 203 201 200 202 206 210 212 216 224 234 242 242 236 240 249 248 244 254 266 254 178 163 148 119 109 110 107 97 87 77 68 61 54 46 41 39 37 37 37 37 36 32 29 25 22 21 19 16
250 250 194 231 313 343 353 331 324 326 335 344 345 340 42 52 16 2 33 161 178 177 177 181 175 172 175 175 176 179 178 177 179 179 176 176 180 179 179 183 183 183 190 190 189 194 198 200 203 205 205 205 206 211 216 218 220 223 229 240 246 239 241 244 236 233 247 246 176 147 152 146 128 119 116 110 98 89 79 69 62 55 49 45 43 42 40 39 39 37 33 29 25 22 22 20 16
201 212 204 204 217 291 296 283 305 320 328 342 342 332 21 56 25 354 11 133 183 184 181 187 179 171 173 174 175 176 175 177 179 178 176 177 180 180 180 184 185 183 186 189 190 194 198 200 204 206 208 211 213 217 221 222 222 223 230 239 239 233 230 220 212 210 197 175 158 155 154 139 127 120 116 109 99 90 80 72 65 58 53 50 48 46 43 40 38 37 34 31 26 23 23 20 15
253 238 245 242 227 268 281 256 224 307 322 340 334 319 350 59 58 7 9 144 194 189 181 184 179 171 171 171 171 172 172 175 179 179 178 178 179 181 181 183 186 185 185 189 191 194 197 200 204 207 209 212 215 217 220 221 223 225 230 234 227 223 214 196 186 175 161 159 166 171 158 135 125 120 114 107 99 91 82 75 70 63 59 56 53 50 45 40 37 34 33 30 25 23 22 19 15